Location: Shenandoah County Park
(38.9356°N, 78.4524°W)
Time: 01:03:32
(UTC-05:00)

A-11 Canister half - Pass Details

Date: 06 December 2023
Orbit: 1526 x 1682 km, 47.3° (Epoch: 01 March)

Event Time Altitude Azimuth Distance (km) Brightness Sun altitude
Rises 20:40:01 0° 266° (W) 4,929 12.4 -43.7°
Reaches altitude 10° 20:43:18 10° 271° (W) 3,943 11.7 -44.3°
Enters shadow 20:51:07 49° 309° (NW) 2,061 9.7 -45.8°
